STARLINK-35654

Last updated on Tue Dec 16 2025 00:02:05 GMT+0000 (Coordinated Universal Time)

1 66483U 25262AD 25349.24671884 -.00395992 00000+0 -84146-2 0 9990 2 66483 43.0014 56.3645 0001919 310.3294 49.7397 15.45705836 5954
UTC large
Height (km)
Speed (km/s)
/
Latitude / Longitude
Inclination (degrees)
Orbital Period (minutes)
Azimuth
Elevation
Range (km)
Doppler Factor

Next 0 passes for location: London (51.5072 / 0.1276)

Sorry there are no passes over London.